This is the latest recevied weather packets stored in our database for station/object XW7RMR. If no packets are shown the sender has not sent any weather packets the latest 10 day(s).
| Time | Temp. | Humidity | Pressure | Rain* | Wind** | Luminosity | Snow |
|---|---|---|---|---|---|---|---|
| 1777911451 | 13.33° C | 83% | 1012.6 hPa | 0 mm | - | 125 W/m² | - |
| 1777911148 | 13.89° C | 83% | 1012.6 hPa | 0 mm | - | 117 W/m² | - |
| 1777910846 | 13.89° C | 84% | 1012.5 hPa | 0 mm | - | 123 W/m² | - |
| 1777910542 | 13.33° C | 85% | 1012.3 hPa | 0 mm | - | 102 W/m² | - |
| 1777910239 | 13.33° C | 85% | 1012.5 hPa | 0 mm | - | 98 W/m² | - |
| 1777909936 | 13.33° C | 85% | 1012.5 hPa | 0 mm | - | 93 W/m² | - |
| 1777909633 | 12.78° C | 86% | 1012.5 hPa | 0 mm | - | 86 W/m² | - |
| 1777909330 | 12.78° C | 86% | 1012.5 hPa | 0 mm | - | 82 W/m² | - |
| 1777909028 | 12.78° C | 86% | 1012.3 hPa | 0 mm | - | 81 W/m² | - |
| 1777908725 | 12.78° C | 87% | 1012.6 hPa | 0 mm | - | 82 W/m² | - |
| 1777908422 | 12.78° C | 87% | 1012.5 hPa | 0 mm | - | 80 W/m² | - |
| 1777908119 | 12.78° C | 87% | 1012.3 hPa | 0 mm | - | 76 W/m² | - |
| 1777907815 | 12.78° C | 88% | 1012.5 hPa | 0 mm | - | 71 W/m² | - |
| 1777907510 | 12.78° C | 88% | 1012.3 hPa | 0 mm | - | 71 W/m² | - |
| 1777907207 | 12.78° C | 88% | 1012 hPa | 0 mm | - | 67 W/m² | - |
| 1777906904 | 12.78° C | 88% | 1012.1 hPa | 0 mm | - | 63 W/m² | - |
| 1777906601 | 12.78° C | 88% | 1012.1 hPa | 0 mm | - | 59 W/m² | - |
| 1777906297 | 12.78° C | 88% | 1011.9 hPa | 0 mm | - | 54 W/m² | - |
| 1777905994 | 12.78° C | 89% | 1012 hPa | 0 mm | - | 56 W/m² | - |
| 1777905690 | 12.22° C | 89% | 1011.9 hPa | 0 mm | - | 57 W/m² | - |
| 1777905387 | 12.22° C | 89% | 1012 hPa | 0 mm | - | 55 W/m² | - |
| 1777905085 | 12.22° C | 89% | 1011.9 hPa | 0 mm | - | 50 W/m² | - |
| 1777904782 | 12.22° C | 90% | 1011.8 hPa | 0 mm | - | 49 W/m² | - |
| 1777904479 | 12.22° C | 90% | 1011.6 hPa | 0 mm | - | 46 W/m² | - |
| 1777904175 | 12.22° C | 90% | 1011.6 hPa | 0 mm | - | 45 W/m² | - |
* Rain latest hour (hover to see other rain measurements)
** Current wind speed in m/s (hover to see current wind gust speed)